Zurück zum Katalog

STARLINK-30081

AktivKommunikationVLEO
NORAD 57515·PAYLOAD·🇺🇸 United States

Gestartet Aug 7, 2023 von Cape Canaveral Space Force Station

Loading…

Nächste Überflüge (nächste 24 Stunden)

TLE

AktuellSource: CelesTrak SupGP

Epoche: Sep 15, 2026, 01:39 UTC

1 57515C 23113W   26258.06923611 -.00022767  00000+0 -82448-3 0  2586
2 57515  43.0042  26.2445 0001717 269.1421  34.6197 15.27594514    16

Verfolge STARLINK-30081 in Echtzeit mit AllMySat

Download on the App Store